Printer-friendly version

IAU Minor Planet Center

Minor Planet Center

MPEC 2006-G19 : 2006 GA1

The following Minor Planet Electronic Circular may be linked-to from your own Web pages, but must not otherwise be redistributed electronically.


Read MPEC 2006-G18 Read MPEC 2006-G20


M.P.E.C. 2006-G19                                Issued 2006 Apr. 4, 15:44 UT

     The Minor Planet Electronic Circulars contain information on unusual
         minor planets and routine data on comets.  They are published
   on behalf of Commission 20 of the International Astronomical Union by the
          Minor Planet Center, Smithsonian Astrophysical Observatory,
                          Cambridge, MA 02138, U.S.A.

                  Supported in part by the Brinson Foundation
                  Supported in part by the TABASGO Foundation
             Prepared using the Tamkin Foundation Computer Network

                              MPC@CFA.HARVARD.EDU
          URL http://cfa-www.harvard.edu/iau/mpc.html  ISSN 1523-6714

                                   2006 GA1

Observations:
     K06G01A* C2006 04 02.17934 12 57 04.86 +01 27 06.3          20.6 V EG019691
     K06G01A  C2006 04 02.19666 12 57 02.65 +01 27 15.8          20.1 V EG019691
     K06G01A  C2006 04 02.21397 12 57 00.53 +01 27 24.5          20.1 V EG019691
     K06G01A  C2006 04 03.07738 12 55 15.18 +01 35 01.8                 EG019J95
     K06G01A  C2006 04 03.08154 12 55 14.72 +01 35 04.0                 EG019J95
     K06G01A  C2006 04 03.10438 12 55 11.88 +01 35 15.9          20.3 R EG019J95
     K06G01A  C2006 04 04.22487 12 52 58.79 +01 44 53.4          20.5 R EG019734
     K06G01A  C2006 04 04.22928 12 52 58.28 +01 44 55.1          19.8 R EG019734
     K06G01A  C2006 04 04.23369 12 52 57.79 +01 44 58.1          20.2 R EG019734
     K06G01A  C2006 04 04.23810 12 52 57.20 +01 45 00.7          20.5 R EG019734
     K06G01A  C2006 04 04.24251 12 52 56.68 +01 45 02.6          20.2 R EG019734
     K06G01A dC2006 04 04.31885 12 52 47.64 +01 45 42.1                 EG019291
     K06G01A dC2006 04 04.32268 12 52 47.22 +01 45 44.1                 EG019291
     K06G01A dC2006 04 04.32661 12 52 46.72 +01 45 45.9                 EG019291

Observer details:
291 LPL/Spacewatch II.  Observer R. S. McMillan.  1.8-m f/2.7 reflector + CCD.
691 Steward Observatory, Kitt Peak.  Observer A. F. Tubbiolo.  0.9-m f/3
    reflector + CCD.
734 Farpoint Observatory.  Observer G. Hug.  0.7-m reflector + CCD.
J95 Great Shefford.  Observer P. Birtwhistle.  0.40-m f/6.0 Schmidt-Cassegrain
    + CCD.

Orbital elements:
2006 GA1                                                 Earth MOID = 0.0919 AU
Epoch 2006 Mar. 6.0 TT = JDT 2453800.5                  MPC
M  16.52180              (2000.0)            P               Q
n   0.17657897     Peri.    1.70849     +0.57632444     -0.81349973
a   3.1466135      Node    53.10703     +0.74862570     +0.48731772
e   0.8729693      Incl.    5.58968     +0.32773418     +0.31739506
P   5.58           H   18.4           G   0.15           U   9
Residuals in seconds of arc
060402 691  0.4+  0.5+    060403 J95  0.3-  0.0     060404 734  0.3-  0.2+
060402 691  0.4-  0.6+    060404 734  0.4-  0.1-    060404 291  0.0   0.5+
060402 691  0.1+  0.0     060404 734  0.1-  0.6-    060404 291  0.6+  0.6+
060403 J95  0.3-  0.0     060404 734  0.5+  0.2+    060404 291  0.2+  0.4+
060403 J95  0.4+  0.0     060404 734  0.4-  0.5+

Ephemeris:
2006 GA1                 a,e,i = 3.15, 0.87, 6                   q = 0.3997
Date    TT    R. A. (2000) Decl.     Delta      r     Elong.  Phase     V
2006 04 05    12 51.47   +01 51.4    1.135    2.130   172.2     3.7    20.7
2006 04 15    12 34.42   +02 58.3    1.272    2.244   160.9     8.4    21.3
2006 04 25    12 21.98   +03 36.9    1.437    2.355   148.6    12.9    21.8
2006 05 05    12 13.89   +03 50.7    1.624    2.461   137.1    16.2    22.3

Kyle E. Smalley              (C) Copyright 2006 MPC           M.P.E.C. 2006-G19

Read MPEC 2006-G18 Read MPEC 2006-G20


Our Web policy. Index to the CBAT/MPC/ICQ pages.


Valid HTML 4.01!